Regional Weather Roundup
Issued by NWS Cleveland, OH

Home | Current Version | Previous Version | Graphics & Text | Print | Product List | Glossary On
Versions: 1 2 3 4 5 6 7 8 9 10 11 12 13 14 15 16 17 18 19 20 21 22 23 24 25 26 27 28 29 30 31 32 33 34 35 36 37 38 39 40 41 42 43 44 45 46 47 48 49 50
000
ASUS41 KCLE 221210
RWRCLE
OHIO REGIONAL WEATHER ROUNDUP
NATIONAL WEATHER SERVICE WILMINGTON, OH
800 AM EDT WED OCT 22 2014

NOTE: "FAIR" INDICATES FEW OR NO CLOUDS BELOW 12,000 FEET WITH NO
SIGNIFICANT WEATHER AND/OR OBSTRUCTIONS TO VISIBILITY.

OHZ001>008-015>018-024>027-034-035-043-044-221300-
   NORTHWEST OHIO

CITY           SKY/WX    TMP DP  RH WIND       PRES   REMARKS
DEFIANCE       CLOUDY    44  38  79 N5        30.30R
FINDLAY        CLOUDY    45  39  79 NW8       30.26R
TOLEDO EXPRESS CLOUDY    44  38  79 N8        30.28R
TOLEDO METCALF CLOUDY    46  38  73 N9        30.29R
LIMA           CLOUDY    44  38  79 N8        30.27R
$$

OHZ009>014-019>023-028>033-038-089-221300-
   NORTHEAST OHIO

CITY           SKY/WX    TMP DP  RH WIND       PRES   REMARKS
CLE-HOPKINS    CLOUDY    48  42  80 N13       30.24R
CLE-LAKEFRONT  CLOUDY    49  43  80 N12       30.21R
CUY CO. ARPT   CLOUDY    48  45  87 N9        30.22R
LORAIN-ELYRIA  CLOUDY    47  43  86 N9        30.23R
ASHTABULA      CLOUDY    46  42  86 NE7       30.20R
AKRON-CANTON   LGT RAIN  46  43  89 N10       30.18R
WOOSTER        CLOUDY    48  44  86 N6        30.21R
MANSFIELD      CLOUDY    44  44 100 NW12      30.22R
YOUNGSTOWN     CLOUDY    45  43  93 N12       30.16R
$$

OHZ042-051>053-060>062-070>072-077>081-221300-
  SOUTHWEST OHIO

CITY           SKY/WX    TMP DP  RH WIND       PRES   REMARKS
CINC-COVINGTON PTCLDY    43  37  79 N8        30.26R
CINC-LUNKEN    CLOUDY    45  39  79 N5        30.28R
HAMILTON       CLEAR     41  37  86 NW6       30.28R
DAYTON         CLOUDY    44  39  82 N8        30.27R
WRIGHT-PAT AFB CLOUDY    44  39  85 N8        30.26R
DAYTON GENERAL MOCLDY    42  38  85 N6        30.25R
WILMINGTON     CLEAR     41  38  89 N9        30.24R
$$

OHZ036-037-039>041-045>050-054>059-063>069-073>076-082>088-221300-
  CENTRAL AND SOUTHEAST OHIO

CITY           SKY/WX    TMP DP  RH WIND       PRES   REMARKS
COLUMBUS       CLOUDY    44  40  85 N13       30.22R
OSU AIRPORT    CLOUDY    43  40  89 NW14      30.23R
BOLTON FIELD   CLOUDY    43  41  93 NW12      30.24R
RICKENBACK AFB CLOUDY    44  40  87 NW14      30.23R
NEWARK         CLOUDY    46  42  86 NW9       30.20R
MARION         CLOUDY    43  40  89 NW10      30.24R
LANCASTER      CLOUDY    45  41  86 NW8       30.22R
ZANESVILLE     CLOUDY    46  43  89 NW9       30.18R
NEW PHILLY     CLOUDY    48  44  86 N7        30.18R
$$



USA.gov is the U.S. government's official web portal to all federal, state and local government web resources and services.